This is the latest recevied weather packets stored in our database for station/object WX7FGZ-5. If no packets are shown the sender has not sent any weather packets the latest 1 day(s).
| Time | Temp. | Humidity | Pressure | Rain* | Wind** | Luminosity | Snow |
|---|---|---|---|---|---|---|---|
| 1778013747 | 6.11° C | 67% | 1016.6 hPa | 0 mm | 0 m/s | 60 W/m² | - |
| 1778013499 | 6.11° C | 67% | 1016.5 hPa | 0 mm | 0 m/s | 44 W/m² | - |
| 1778013444 | 6.11° C | 67% | 1016.5 hPa | 0 mm | 0 m/s | 44 W/m² | - |
| 1778012945 | 6.11° C | 65% | 1016.6 hPa | 0 mm | 2.68 m/s, 187° | 32 W/m² | - |
| 1778012493 | 6.67° C | 62% | 1017.4 hPa | 0 mm | 4.47 m/s, 189° | 32 W/m² | - |
| 1778012343 | 6.67° C | 62% | 1017.4 hPa | 0 mm | 4.47 m/s, 189° | 32 W/m² | - |
| 1778011591 | 7.78° C | 62% | 1017.2 hPa | 0 mm | 4.02 m/s, 203° | 35 W/m² | - |
| 1778011446 | 7.78° C | 62% | 1017.2 hPa | 0 mm | 4.02 m/s, 203° | 35 W/m² | - |
| 1778011285 | 8.33° C | 62% | 1017.3 hPa | 0 mm | 4.02 m/s, 204° | 40 W/m² | - |
| 1778011143 | 8.33° C | 62% | 1017.3 hPa | 0 mm | 4.02 m/s, 204° | 40 W/m² | - |
| 1778010991 | 8.33° C | 62% | 1017 hPa | 0 mm | 3.58 m/s, 198° | 46 W/m² | - |
| 1778010843 | 8.33° C | 62% | 1017 hPa | 0 mm | 3.58 m/s, 198° | 46 W/m² | - |
| 1778010802 | 8.33° C | 62% | 1016.9 hPa | 0 mm | 4.02 m/s, 201° | 63 W/m² | - |
| 1778010543 | 8.33° C | 62% | 1016.9 hPa | 0 mm | 4.02 m/s, 201° | 63 W/m² | - |
| 1778010125 | 8.33° C | 60% | 1016.8 hPa | 0 mm | 3.58 m/s, 190° | 88 W/m² | - |
| 1778009943 | 8.33° C | 60% | 1016.8 hPa | 0 mm | 3.58 m/s, 190° | 88 W/m² | - |
| 1778009518 | 8.33° C | 58% | 1016.7 hPa | 0 mm | 2.68 m/s, 210° | 144 W/m² | - |
| 1778009343 | 8.33° C | 58% | 1016.7 hPa | 0 mm | 2.68 m/s, 210° | 144 W/m² | - |
| 1778008993 | 8.89° C | 55% | 1016.7 hPa | 0 mm | 4.47 m/s, 228° | 169 W/m² | - |
| 1778008742 | 8.89° C | 55% | 1016.7 hPa | 0 mm | 4.47 m/s, 228° | 169 W/m² | - |
| 1778008616 | 8.89° C | 55% | 1016.8 hPa | 0 mm | 4.92 m/s, 248° | 202 W/m² | - |
| 1778008443 | 8.89° C | 55% | 1016.8 hPa | 0 mm | 4.92 m/s, 248° | 202 W/m² | - |
| 1778008038 | 9.44° C | 55% | 1016.8 hPa | 0 mm | 3.13 m/s, 225° | 281 W/m² | - |
| 1778007843 | 9.44° C | 55% | 1016.8 hPa | 0 mm | 3.13 m/s, 225° | 281 W/m² | - |
| 1778007469 | 9.44° C | 54% | 1016.8 hPa | 0 mm | 6.71 m/s, 235° | 357 W/m² | - |
* Rain latest hour (hover to see other rain measurements)
** Current wind speed in m/s (hover to see current wind gust speed)